User: anonymous   Login
Location: Columbia
(38.9520°N, 92.3340°W)
Time: 21:32:12
(UTC-05:00)
Language:

Cosmos 2219 Rocket - Orbit

View from above orbital plane
View from above orbital plane
View from above satellite
View from above satellite

Ground track
Ground track

The orbit data is extracted from the following two-line orbital elements,

1 22220U 92076B   17146.37230828 +.00000213 +00000-0 +13108-3 0  9996
2 22220 070.9994 105.1687 0014670 300.9232 172.5841 14.16415019267356
Epoch (UTC): 26 May 2017 08:56:07
Eccentricity: 0.0014670
inclination: 70.9994°
perigee height: 827 km
apogee height: 848 km
right ascension of ascending node: 105.1687°
argument of perigee: 300.9232°
revolutions per day: 14.16415019
mean anomaly at epoch: 172.5841°
orbit number at epoch: 26735

The dashed part of the orbit path shows where the satellite is in the earth's shadow,  

DLR